Dewpoint
66 66 69 74 74 74 74 75 75 75 75 75 74 74 74 74 74 74 73 73 73 73 73 73 73 73 73 72 72 71 71 71 72 72 70 71 70 70 70 70 69 67 66 66 67 68 66 66 66 66 66 66 66 66 65 68 68 68 68 68 68 68 67 67 68 68 69 70 69 69 69 69 69 70 70 69 69 69 69 69 69 67 67 69 69
66 67 70 72 74 74 74 75 75 75 75 75 74 74 74 74 74 73 73 73 73 73 73 73 73 73 72 72 71 71 71 72 72 71 70 70 70 70 70 69 67 67 67 68 68 67 66 67 67 66 66 66 66 66 66 66 67 67 68 68 68 68 67 67 68 68 70 69 70 69 69 69 70 70 69 70 70 69 69 69 69 67 68 69 69
66 67 70 71 74 74 74 74 74 74 74 74 74 74 74 74 74 74 73 73 73 73 73 73 73 72 72 72 71 71 71 71 71 71 70 71 70 70 70 68 68 68 68 68 67 67 66 66 67 67 67 67 67 67 67 67 66 67 67 68 68 68 68 68 68 69 70 70 70 69 70 70 69 69 69 69 69 70 69 69 69 69 68 69 69
67 67 69 73 73 74 74 74 74 74 74 74 74 74 74 74 74 73 73 73 73 73 73 73 73 72 72 71 71 71 71 71 70 70 71 71 70 70 69 68 68 67 67 68 67 66 66 67 67 67 68 67 66 67 67 67 66 67 67 68 68 69 69 68 68 70 70 71 70 68 68 67 67 69 69 70 70 70 69 69 69 69 69 69 69
66 66 69 71 71 73 74 74 74 74 74 74 74 74 74 74 74 73 73 73 73 73 73 73 72 72 71 71 71 71 71 70 70 69 70 70 70 68 68 67 67 68 69 67 66 66 67 67 67 68 68 67 67 66 67 67 67 66 67 67 67 67 68 68 68 68 69 69 67 68 69 67 67 69 69 69 69 69 68 68 68 68 68 68 68
66 66 68 69 69 71 73 74 74 74 74 74 74 74 73 73 73 73 73 73 73 73 73 72 72 72 71 71 71 71 70 70 69 69 71 69 71 69 67 68 69 70 69 66 66 67 67 68 68 68 69 69 68 67 66 67 66 66 66 66 66 66 66 67 67 67 68 68 69 65 68 65 66 66 68 68 68 68 68 67 67 67 67 67 67
67 66 67 66 67 70 73 73 74 74 74 74 74 73 73 73 73 73 73 73 73 73 73 72 72 72 71 71 70 70 70 69 69 70 70 69 70 70 68 68 70 70 68 67 68 68 69 68 69 69 69 69 69 68 66 66 66 66 66 65 65 65 66 66 65 65 67 68 62 62 66 64 65 65 67 67 67 67 67 67 67 67 67 66 66
66 65 65 64 66 72 73 73 73 73 73 74 73 73 73 73 73 73 73 73 73 72 72 72 72 72 71 71 70 70 70 69 70 70 69 70 70 70 69 69 69 68 68 69 69 69 69 69 69 69 69 69 69 69 68 66 66 66 65 65 64 65 66 65 66 66 68 62 57 60 61 62 63 63 67 67 67 67 68 68 67 67 66 66 65
65 64 64 65 69 72 73 73 73 73 73 73 73 73 73 73 73 73 73 72 72 72 72 72 71 71 71 70 70 70 70 70 70 71 71 71 70 70 70 69 68 69 70 70 70 70 70 69 69 69 69 69 68 68 68 66 66 66 65 64 64 64 65 66 66 68 63 56 57 58 58 58 59 63 65 66 66 67 67 66 66 66 66 66 65
64 64 65 67 69 73 72 73 73 73 73 73 73 73 73 73 73 73 72 72 72 72 72 72 71 71 71 70 70 70 71 70 70 71 72 71 70 70 70 70 70 70 70 70 70 70 69 69 69 68 68 68 68 68 68 68 66 66 65 64 63 63 63 66 68 69 58 58 58 59 62 64 59 61 63 65 65 66 66 66 65 65 65 65 65
65 65 66 66 68 72 72 72 73 73 72 73 72 72 73 72 72 72 72 72 72 72 72 71 71 71 71 70 70 70 70 70 70 71 72 71 70 70 69 70 71 70 70 71 70 69 69 69 69 68 68 69 69 69 68 68 67 66 65 64 63 64 67 65 66 51 51 52 56 59 61 65 61 61 63 64 65 65 64 64 66 66 65 65 64
65 67 67 67 72 72 72 72 72 72 72 72 72 72 72 72 72 72 72 72 72 72 72 71 71 71 71 71 70 70 70 70 71 71 71 70 71 70 70 71 71 70 70 70 70 70 69 69 69 69 69 69 68 69 69 69 68 67 65 64 65 64 65 65 64 58 57 57 58 60 57 58 59 61 64 63 66 65 65 65 65 65 64 64 63
66 66 67 69 69 72 72 72 72 72 71 72 72 72 72 72 72 72 72 72 72 72 71 71 71 72 72 71 70 69 70 70 71 71 71 71 70 70 71 71 70 70 70 70 70 70 69 69 69 69 69 69 69 69 69 69 69 67 66 65 64 63 65 65 61 56 55 57 58 58 57 61 61 63 62 63 63 63 64 64 64 63 63 63 63
66 67 68 67 68 72 72 72 72 72 71 72 72 71 72 72 72 72 72 72 72 71 72 71 71 71 71 71 70 70 70 71 71 71 70 70 70 71 71 71 71 71 70 70 69 69 68 69 69 69 69 68 68 68 69 69 69 67 66 66 65 65 66 68 63 59 60 59 61 59 60 62 61 65 64 64 64 63 63 63 62 62 62 62 61
66 68 68 66 68 69 72 72 72 72 72 71 71 72 72 72 72 72 72 72 72 72 72 72 71 71 70 70 70 70 70 70 70 70 70 70 70 70 71 71 70 70 70 69 69 69 69 70 69 69 69 68 69 69 68 68 68 68 66 66 66 66 66 63 53 57 58 58 59 58 59 61 66 64 63 63 63 63 62 61 62 63 62 63 62
67 68 66 68 67 69 70 72 72 72 72 72 72 72 72 71 72 72 72 72 72 72 72 71 71 71 70 70 70 70 70 70 71 70 70 70 70 71 71 70 70 70 69 69 69 69 69 69 69 69 68 69 69 69 69 68 68 67 67 66 65 66 67 68 58 57 57 58 58 59 60 60 64 62 62 62 62 62 63 64 63 62 62 62 61
68 67 66 66 68 68 68 69 70 72 72 72 72 72 71 71 71 72 72 72 72 72 71 71 71 71 70 70 70 70 69 70 70 70 70 70 70 70 70 70 69 69 69 69 69 69 69 69 69 69 68 68 68 69 68 69 68 67 66 65 67 67 69 70 58 61 60 59 58 59 60 60 63 64 63 62 62 62 62 62 62 60 61 61 61
67 67 66 67 68 67 68 68 70 71 71 72 72 72 72 71 71 72 72 72 72 72 71 71 71 70 70 70 70 70 70 70 70 70 70 70 71 70 70 69 69 69 69 69 69 69 69 69 69 68 69 69 69 68 69 69 68 67 66 67 66 69 68 71 60 60 60 62 59 60 60 64 65 63 62 63 62 61 61 61 61 61 61 61 61
66 66 67 66 65 65 67 69 70 69 71 70 71 71 72 72 72 72 72 72 72 72 71 71 71 70 71 71 70 69 70 70 70 70 70 70 70 70 70 69 69 69 69 69 69 68 68 69 69 68 68 68 69 69 69 68 68 67 67 66 67 68 69 69 58 59 61 61 61 60 60 66 64 63 63 62 62 62 61 62 61 61 61 64 64
65 67 68 66 66 66 66 68 68 69 69 69 71 71 72 72 72 72 72 72 71 71 71 71 70 70 70 70 70 70 70 70 70 70 70 70 70 68 69 69 69 69 69 68 68 68 68 68 69 69 69 69 69 69 69 68 67 67 67 67 68 67 67 59 57 58 60 60 61 60 64 64 63 62 62 61 63 62 61 60 59 61 61 62 62
65 64 65 66 66 67 68 67 68 69 69 69 70 70 71 72 72 72 72 71 71 71 71 71 71 70 70 69 70 68 68 69 70 68 70 69 69 69 69 68 69 69 69 68 68 68 68 68 68 68 69 69 69 69 69 68 68 68 67 68 67 67 62 61 61 61 60 60 60 59 65 63 63 62 62 63 62 61 63 63 62 61 62 62 62
64 63 64 64 67 66 68 68 69 69 70 71 70 69 70 69 69 70 70 71 71 71 72 71 70 71 69 70 69 68 67 68 68 69 68 68 69 69 69 68 68 68 68 68 68 68 67 67 67 68 69 69 69 67 68 69 68 68 69 68 66 62 62 61 60 58 58 60 61 62 63 62 62 63 62 62 62 62 62 62 62 61 62 61 61
64 63 64 66 66 68 69 70 71 69 69 70 69 68 68 67 67 67 69 69 69 71 71 70 70 67 66 65 71 70 69 70 70 67 68 68 69 69 68 68 68 68 67 67 68 68 68 66 66 65 67 69 69 65 66 65 66 68 69 66 67 62 61 60 60 59 58 58 58 63 62 62 62 62 62 61 62 62 62 62 62 61 60 62 62
64 64 65 67 67 68 69 69 69 70 68 69 70 67 67 67 65 66 68 69 69 68 69 70 68 68 66 69 69 69 70 71 69 68 68 69 68 69 68 68 67 67 68 67 68 67 67 67 65 65 65 66 65 65 64 65 65 66 67 66 62 61 61 61 58 59 60 58 57 63 62 62 61 61 62 62 63 61 61 61 61 61 60 60 60
65 67 65 67 68 68 69 67 69 71 69 70 69 66 65 64 64 65 68 67 68 69 70 69 68 69 69 68 67 67 67 68 69 68 68 66 66 66 67 66 65 65 66 64 64 64 65 61 61 61 60 61 61 64 65 65 66 65 65 64 62 63 61 61 60 60 61 61 63 63 62 62 62 62 62 62 61 62 62 61 61 61 60 61 61
65 66 64 67 67 69 68 70 70 69 69 70 67 64 64 63 65 68 68 66 69 70 70 69 70 69 68 68 67 68 68 68 69 68 67 65 64 62 61 61 60 61 63 61 61 61 61 60 59 59 60 61 61 63 63 67 66 70 66 64 62 62 60 60 59 60 61 63 64 65 64 63 64 63 63 62 62 62 62 61 62 61 61 61 60
64 65 67 67 67 69 69 69 69 69 68 69 70 63 65 68 68 69 68 68 68 69 68 68 69 69 69 70 69 69 69 69 70 69 68 65 63 63 65 63 61 60 63 61 62 61 61 60 59 61 61 60 59 60 62 68 67 66 64 60 61 61 61 61 60 60 62 63 65 65 65 65 65 64 63 62 62 62 61 61 60 60 60 60 60
67 68 68 69 69 68 68 68 68 67 67 69 70 63 67 69 69 67 69 70 68 68 68 68 70 69 69 69 69 69 70 69 69 68 68 67 67 69 66 62 63 61 64 63 61 61 59 61 63 59 59 59 58 59 60 69 69 66 66 61 61 62 62 60 62 62 62 63 64 66 66 66 65 65 63 63 63 62 62 61 61 62 61 61 61
65 66 67 66 67 67 67 67 67 66 67 69 68 70 70 67 67 68 67 69 68 69 69 68 68 69 69 68 68 69 68 68 68 69 67 67 66 64 63 62 63 61 62 62 61 62 61 60 60 59 60 59 58 59 57 64 68 65 61 60 60 60 62 63 64 62 61 62 64 66 67 66 65 65 63 63 62 62 62 62 62 61 61 61 60
64 67 65 65 67 67 65 66 67 68 69 67 67 67 70 67 65 68 68 69 69 69 68 70 70 69 69 68 68 69 68 68 68 66 66 64 63 64 64 63 62 63 64 65 64 63 61 62 61 60 56 56 58 58 61 64 64 63 59 59 61 62 63 66 65 69 63 63 64 66 67 67 66 65 64 63 62 62 62 62 62 61 61 61 61
65 66 66 66 66 66 66 67 67 68 68 66 67 67 68 67 66 69 69 67 68 68 68 68 70 69 69 68 68 68 69 68 66 63 64 63 65 65 64 63 63 64 65 65 66 65 63 62 62 60 59 57 57 56 58 65 68 65 63 60 60 64 62 62 68 67 65 64 64 65 65 66 65 64 63 65 63 62 62 61 61 62 62 62 62
65 66 65 66 66 66 67 66 68 69 69 66 67 67 66 65 67 67 68 67 68 67 68 69 68 70 68 68 69 69 67 67 66 64 65 65 65 66 65 65 64 64 65 64 65 64 63 62 64 64 64 61 60 58 60 64 64 67 64 64 66 66 62 64 67 67 65 64 63 64 65 64 66 65 65 64 64 63 62 63 62 62 62 62 62
65 66 66 66 65 65 66 67 68 69 69 66 66 66 66 65 66 67 66 67 69 67 67 68 69 68 69 68 68 68 68 67 67 66 65 64 65 66 66 66 65 65 66 66 66 66 65 64 64 63 63 63 61 61 58 65 65 66 63 64 67 64 64 62 68 67 65 64 64 64 64 64 64 67 66 64 64 64 63 62 61 61 62 62 62
65 65 67 67 65 66 67 68 69 69 68 67 67 66 66 66 66 66 66 67 65 65 66 67 69 68 68 68 67 68 67 66 66 66 66 66 66 65 65 65 64 65 66 66 65 65 63 63 62 62 62 62 61 61 60 62 65 65 65 64 67 68 65 66 67 67 64 64 65 65 65 63 63 63 62 65 65 64 63 62 61 62 63 63 63
64 65 67 65 65 67 68 67 70 69 68 67 66 65 66 64 65 66 66 67 66 65 66 64 69 67 67 67 67 67 66 66 66 66 66 65 65 65 64 64 66 65 63 65 64 64 64 63 61 61 62 66 67 65 66 66 68 66 68 69 67 65 66 66 66 67 65 65 65 65 65 66 65 63 61 61 67 67 67 65 64 62 64 65 65
65 65 65 65 66 67 68 69 69 68 68 68 66 66 65 65 65 66 66 67 64 63 63 66 66 67 67 66 66 67 67 66 66 67 67 64 63 64 64 66 65 65 65 65 66 62 63 63 62 67 66 64 66 66 67 67 63 64 64 64 67 66 66 66 66 66 66 65 67 66 66 67 66 68 63 61 63 65 66 65 65 65 65 65 65
65 65 66 65 66 67 68 68 68 68 68 67 66 66 66 65 66 67 65 66 65 63 63 65 69 64 64 63 67 66 66 66 66 67 66 64 61 62 63 66 66 65 65 66 63 62 64 63 64 63 65 61 60 63 66 66 63 63 65 64 66 66 65 66 67 67 67 66 66 66 65 65 66 66 67 65 62 63 66 67 66 66 66 66 65
66 66 67 66 66 67 69 69 69 68 67 66 66 66 66 66 66 65 66 65 65 63 63 64 64 68 62 64 67 66 67 66 66 66 67 64 63 63 64 67 66 66 65 64 63 62 63 64 64 64 62 62 62 63 62 63 62 63 63 65 65 66 66 65 66 66 66 65 66 65 65 66 66 66 68 65 63 62 64 66 66 66 65 65 65
65 67 66 66 67 67 68 69 69 69 68 67 66 66 66 67 66 65 66 65 65 63 66 66 66 65 63 68 66 66 66 66 67 66 67 64 63 64 66 67 66 65 65 63 62 63 64 65 64 64 65 63 64 62 61 62 62 62 64 64 65 65 65 66 65 65 65 66 65 64 63 65 65 66 66 67 67 63 63 63 64 64 65 65 65
65 67 66 66 66 66 67 68 69 69 68 67 65 64 66 65 63 65 64 65 64 65 68 68 68 65 63 64 65 66 65 67 66 66 67 65 64 64 66 66 65 64 64 62 62 62 64 65 64 64 64 62 62 65 63 62 62 63 63 65 65 65 65 63 64 65 64 66 65 65 65 67 65 66 66 66 66 66 66 67 67 68 64 64 64
65 67 66 65 65 65 66 66 69 68 66 64 64 63 64 64 66 63 63 65 64 67 66 66 67 68 63 62 65 64 66 66 65 66 66 65 65 65 66 65 64 63 64 64 64 64 65 65 64 64 63 62 60 65 63 62 61 62 64 63 63 62 62 62 64 65 65 67 66 67 65 66 65 66 67 66 66 66 66 65 66 66 68 62 61
64 65 65 64 66 66 66 66 67 67 65 64 63 63 64 65 65 64 64 61 66 66 65 67 66 65 65 65 66 65 66 66 66 66 66 65 65 64 66 65 64 64 66 66 65 64 64 64 64 63 62 60 63 61 65 63 59 58 58 59 62 62 62 62 62 63 63 63 64 64 63 64 65 66 66 66 66 65 65 66 67 65 65 65 65
65 64 64 65 66 65 66 66 65 65 63 64 63 62 66 65 66 66 65 64 65 65 62 67 65 65 66 67 66 66 65 65 66 66 66 65 65 65 65 64 64 66 65 65 64 65 64 64 63 62 61 62 61 63 66 64 60 60 61 59 57 59 59 63 62 62 62 63 64 64 64 64 65 65 65 65 66 66 64 66 64 64 63 64 65
63 63 64 63 64 65 65 65 65 65 64 64 63 63 67 65 66 66 67 66 64 65 67 68 64 65 66 65 65 66 66 65 64 64 65 65 65 65 65 64 65 65 66 65 65 64 64 64 63 63 62 61 57 60 64 65 64 61 58 57 58 56 56 58 57 61 63 61 62 62 63 63 64 64 65 65 63 65 64 60 63 64 62 61 59
63 62 63 63 64 65 65 64 64 64 63 64 64 65 65 65 66 66 66 66 67 67 66 66 63 66 64 65 65 66 65 64 63 61 60 63 64 64 65 64 64 65 64 63 62 63 62 63 62 63 62 61 58 61 62 63 64 63 61 58 57 53 56 56 57 60 61 60 60 61 63 63 64 64 65 63 65 63 60 60 62 62 63 63 62
62 62 63 64 64 64 65 65 65 64 63 64 64 66 65 65 64 63 62 63 62 64 64 63 62 65 63 65 64 65 65 64 63 62 61 63 65 66 66 65 65 64 64 63 62 61 61 61 62 62 62 63 63 61 61 63 64 63 63 63 63 59 57 56 55 56 61 61 62 63 62 64 63 62 63 61 59 60 61 59 59 60 62 62 64
62 63 63 64 64 65 65 65 65 64 64 64 65 67 66 66 64 63 63 62 60 63 65 67 63 63 63 66 65 66 64 65 64 63 64 63 65 65 66 66 65 65 65 64 63 63 61 61 62 62 61 62 63 61 61 61 63 63 62 63 63 63 60 56 56 56 56 58 62 62 61 60 62 60 60 59 58 57 57 57 56 56 57 58 58
62 62 63 63 64 65 65 65 65 64 65 65 66 66 65 65 65 65 64 64 64 64 64 65 64 63 63 64 65 65 64 64 64 63 63 62 63 62 63 63 62 62 60 61 61 60 63 62 64 63 61 62 64 63 61 61 58 60 62 61 62 61 61 61 60 58 58 55 55 58 61 62 61 60 58 57 58 58 58 57 54 53 54 53 54
63 62 63 63 64 64 65 65 65 65 65 65 66 67 65 65 65 64 63 62 64 63 63 64 63 63 64 64 64 62 63 64 62 62 62 62 62 63 62 62 62 62 60 59 60 59 60 63 64 63 63 63 63 63 62 61 59 60 60 60 60 60 61 60 61 60 58 54 54 55 57 59 59 59 59 59 57 57 56 54 51 52 54 54 54
63 63 63 64 64 65 65 65 65 65 65 65 66 66 66 67 65 65 62 64 65 64 63 62 62 64 64 64 63 62 62 63 63 62 63 62 61 62 62 62 62 61 60 59 60 61 62 63 64 64 63 63 63 63 63 62 60 61 60 60 61 60 60 60 62 61 59 58 54 52 56 56 56 57 59 58 57 55 52 52 51 47 48 48 48
64 65 64 65 65 63 64 65 65 65 66 66 66 66 65 66 66 65 63 63 62 64 65 63 63 64 62 62 61 61 61 60 60 61 62 61 62 62 62 61 62 62 60 60 61 60 62 64 65 64 64 63 62 62 63 63 62 62 62 61 60 60 59 58 59 60 58 57 58 55 55 55 54 55 57 56 54 51 48 49 47 46 46 46 44